When you browse on this site, cookies collect data to enhance your experience and personalize the content and advertising you see.
Visit our Privacy Policy to learn more. By continuing to use the site, you agree to this use of cookies and data.
  • In Hungary
  • List of Countries
  • For 7 days
  • Water Temperature
  • Satellite Maps
  • Weather Map
  • News
  • Weather Widgets
  • user-avatar
    Login

    Hourly Weather Barcelona

    Today, 20 March, Wednesday

    Time Temperature Precipitation Wind Pressure Humidity
    00:00 +28°C° 0 mm 3 mps 759 mmHg 67%
    01:00 +28°C° 0 mm 3 mps 758 mmHg 68%
    02:00 +27°C° 0 mm 2 mps 758 mmHg 69%
    03:00 +27°C° 0 mm 2 mps 758 mmHg 71%
    04:00 +26°C° 0 mm 1 mps 758 mmHg 72%
    05:00 +26°C° 0 mm 1 mps 758 mmHg 73%
    06:00 +28°C° 0 mm 1 mps 758 mmHg 67%
    07:00 +29°C° 0 mm 1 mps 759 mmHg 61%
    08:00 +31°C° 0 mm 1 mps 759 mmHg 54%
    09:00 +34°C° 0 mm 1 mps 759 mmHg 46%
    10:00 +38°C° 0 mm 2 mps 760 mmHg 38%
    11:00 +42°C° 0 mm 3 mps 760 mmHg 30%
    12:00 +40°C° 0 mm 3 mps 759 mmHg 31%
    13:00 +41°C° 0 mm 4 mps 758 mmHg 33%
    14:00 +40°C° 0 mm 5 mps 757 mmHg 35%
    15:00 +39°C° 0 mm 5 mps 757 mmHg 40%
    16:00 +36°C° 0 mm 6 mps 756 mmHg 45%
    17:00 +35°C° 0 mm 6 mps 756 mmHg 50%
    18:00 +34°C° 0 mm 6 mps 756 mmHg 56%
    19:00 +32°C° 0 mm 6 mps 757 mmHg 62%
    20:00 +30°C° 0 mm 6 mps 757 mmHg 68%
    21:00 +30°C° 0 mm 5 mps 758 mmHg 69%
    22:00 +29°C° 0 mm 4 mps 758 mmHg 71%
    23:00 +29°C° 0 mm 4 mps 759 mmHg 72%

    Tomorrow, 21 March, Thursday

    Time Temperature Precipitation Wind Pressure Humidity
    00:00 +29°C° 0 mm 3 mps 758 mmHg 73%
    01:00 +28°C° 0 mm 3 mps 758 mmHg 74%
    02:00 +28°C° 0 mm 2 mps 758 mmHg 75%
    03:00 +27°C° 0 mm 2 mps 758 mmHg 76%
    04:00 +27°C° 0 mm 2 mps 758 mmHg 77%
    05:00 +27°C° 0 mm 1 mps 758 mmHg 78%
    06:00 +28°C° 0 mm 1 mps 758 mmHg 71%
    07:00 +29°C° 0 mm 1 mps 759 mmHg 65%
    08:00 +31°C° 0 mm 1 mps 759 mmHg 58%
    09:00 +34°C° 0 mm 1 mps 759 mmHg 49%
    10:00 +38°C° 0 mm 2 mps 760 mmHg 40%
    11:00 +42°C° 0 mm 3 mps 760 mmHg 32%
    12:00 +41°C° 0 mm 4 mps 759 mmHg 33%
    13:00 +40°C° 0 mm 4 mps 758 mmHg 35%
    14:00 +39°C° 0 mm 5 mps 757 mmHg 37%
    15:00 +37°C° 0 mm 5 mps 756 mmHg 41%
    16:00 +36°C° 0 mm 6 mps 756 mmHg 46%
    17:00 +35°C° 0 mm 6 mps 755 mmHg 50%
    18:00 +33°C° 0 mm 6 mps 756 mmHg 56%
    19:00 +32°C° 0 mm 6 mps 756 mmHg 61%
    20:00 +30°C° 0 mm 6 mps 757 mmHg 67%
    21:00 +29°C° 0 mm 5 mps 758 mmHg 68%
    22:00 +29°C° 0 mm 5 mps 758 mmHg 69%
    23:00 +29°C° 0 mm 4 mps 759 mmHg 70%

    Day after tomorrow, 22 March, Friday

    Time Temperature Precipitation Wind Pressure Humidity
    00:00 +28°C° 0 mm 4 mps 758 mmHg 72%
    01:00 +28°C° 0 mm 3 mps 758 mmHg 74%
    02:00 +27°C° 0 mm 3 mps 757 mmHg 75%
    03:00 +27°C° 0 mm 3 mps 757 mmHg 77%
    04:00 +27°C° 0 mm 2 mps 757 mmHg 78%
    05:00 +26°C° 0 mm 2 mps 757 mmHg 79%
    06:00 +28°C° 0 mm 1 mps 758 mmHg 73%
    07:00 +29°C° 0 mm 1 mps 759 mmHg 66%
    08:00 +30°C° 0 mm 1 mps 759 mmHg 60%
    09:00 +33°C° 0 mm 1 mps 759 mmHg 50%
    10:00 +37°C° 0 mm 2 mps 760 mmHg 40%
    11:00 +42°C° 0 mm 3 mps 760 mmHg 30%
    12:00 +40°C° 0 mm 3 mps 759 mmHg 31%
    13:00 +40°C° 0 mm 4 mps 758 mmHg 32%
    14:00 +39°C° 0 mm 5 mps 757 mmHg 33%
    15:00 +37°C° 0 mm 5 mps 756 mmHg 36%
    16:00 +35°C° 0 mm 5 mps 756 mmHg 39%
    17:00 +34°C° 0 mm 6 mps 755 mmHg 42%
    18:00 +33°C° 0 mm 6 mps 756 mmHg 48%
    19:00 +30°C° 0 mm 6 mps 757 mmHg 54%
    20:00 +29°C° 0 mm 6 mps 757 mmHg 61%
    21:00 +29°C° 0 mm 5 mps 758 mmHg 63%
    22:00 +28°C° 0 mm 5 mps 759 mmHg 65%
    23:00 +28°C° 0 mm 5 mps 759 mmHg 67%

    23 March, Saturday

    Time Temperature Precipitation Wind Pressure Humidity
    00:00 +28°C° 0 mm 4 mps 759 mmHg 68%
    01:00 +27°C° 0 mm 3 mps 758 mmHg 70%
    02:00 +27°C° 0 mm 2 mps 758 mmHg 71%
    03:00 +26°C° 0 mm 2 mps 758 mmHg 72%
    04:00 +26°C° 0 mm 1 mps 758 mmHg 73%
    05:00 +26°C° 0 mm 1 mps 758 mmHg 74%
    06:00 +27°C° 0 mm 1 mps 759 mmHg 67%
    07:00 +29°C° 0 mm 1 mps 759 mmHg 60%
    08:00 +30°C° 0 mm 1 mps 760 mmHg 53%
    09:00 +34°C° 0 mm 1 mps 760 mmHg 43%
    10:00 +38°C° 0 mm 2 mps 760 mmHg 34%
    11:00 +42°C° 0 mm 2 mps 760 mmHg 25%
    12:00 +42°C° 0 mm 3 mps 759 mmHg 28%
    13:00 +40°C° 0 mm 4 mps 758 mmHg 32%
    14:00 +39°C° 0 mm 5 mps 757 mmHg 35%
    15:00 +37°C° 0 mm 5 mps 757 mmHg 38%
    16:00 +35°C° 0 mm 5 mps 756 mmHg 42%
    17:00 +33°C° 0 mm 5 mps 756 mmHg 45%
    18:00 +32°C° 0 mm 5 mps 757 mmHg 52%
    19:00 +30°C° 0 mm 5 mps 757 mmHg 59%
    20:00 +29°C° 0 mm 4 mps 758 mmHg 66%
    21:00 +29°C° 0 mm 4 mps 758 mmHg 69%
    22:00 +28°C° 0 mm 3 mps 759 mmHg 71%
    23:00 +28°C° 0 mm 3 mps 759 mmHg 74%

    24 March, Sunday

    Time Temperature Precipitation Wind Pressure Humidity
    00:00 +28°C° 0 mm 3 mps 759 mmHg 76%
    01:00 +27°C° 0 mm 2 mps 758 mmHg 78%
    02:00 +27°C° 0 mm 2 mps 758 mmHg 80%
    03:00 +27°C° 0 mm 1 mps 758 mmHg 81%
    04:00 +27°C° 0 mm 1 mps 758 mmHg 82%
    05:00 +26°C° 0 mm 1 mps 758 mmHg 83%
    06:00 +28°C° 0 mm 1 mps 759 mmHg 76%
    07:00 +29°C° 0 mm 1 mps 759 mmHg 69%
    08:00 +30°C° 0 mm 1 mps 760 mmHg 62%
    09:00 +33°C° 0 mm 1 mps 760 mmHg 52%
    10:00 +38°C° 0 mm 2 mps 760 mmHg 41%
    11:00 +41°C° 0 mm 2 mps 760 mmHg 31%
    12:00 +40°C° 0 mm 3 mps 759 mmHg 34%
    13:00 +40°C° 0 mm 4 mps 758 mmHg 36%
    14:00 +39°C° 0 mm 5 mps 757 mmHg 39%
    15:00 +37°C° 0 mm 5 mps 757 mmHg 43%
    16:00 +36°C° 0 mm 5 mps 756 mmHg 46%
    17:00 +35°C° 0 mm 5 mps 756 mmHg 50%
    18:00 +34°C° 0 mm 5 mps 756 mmHg 54%
    19:00 +33°C° 0 mm 5 mps 757 mmHg 59%
    20:00 +32°C° 0 mm 5 mps 757 mmHg 64%
    21:00 +30°C° 0 mm 4 mps 758 mmHg 66%
    22:00 +30°C° 0 mm 4 mps 758 mmHg 68%
    23:00 +29°C° 0 mm 3 mps 758 mmHg 70%

    25 March, Monday

    Time Temperature Precipitation Wind Pressure Humidity
    00:00 +29°C° 0 mm 3 mps 758 mmHg 70%
    01:00 +28°C° 0 mm 2 mps 758 mmHg 71%
    02:00 +28°C° 0 mm 2 mps 757 mmHg 71%
    03:00 +28°C° 0 mm 2 mps 757 mmHg 72%
    04:00 +27°C° 0 mm 1 mps 757 mmHg 73%
    05:00 +27°C° 0 mm 1 mps 757 mmHg 73%
    06:00 +28°C° 0 mm 1 mps 758 mmHg 68%
    07:00 +29°C° 0 mm 1 mps 759 mmHg 62%
    08:00 +30°C° 0 mm 1 mps 759 mmHg 57%
    09:00 +34°C° 0 mm 1 mps 759 mmHg 48%
    10:00 +38°C° 0 mm 2 mps 759 mmHg 39%
    11:00 +43°C° 0 mm 3 mps 759 mmHg 30%
    12:00 +42°C° 0 mm 3 mps 758 mmHg 32%
    13:00 +41°C° 0 mm 4 mps 757 mmHg 33%
    14:00 +40°C° 0 mm 5 mps 756 mmHg 35%
    15:00 +39°C° 0 mm 5 mps 756 mmHg 38%
    16:00 +37°C° 0 mm 5 mps 755 mmHg 41%
    17:00 +36°C° 0 mm 5 mps 755 mmHg 45%
    18:00 +34°C° 0 mm 5 mps 755 mmHg 51%
    19:00 +33°C° 0 mm 5 mps 756 mmHg 57%
    20:00 +30°C° 0 mm 5 mps 756 mmHg 62%
    21:00 +30°C° 0 mm 5 mps 757 mmHg 63%
    22:00 +30°C° 0 mm 4 mps 757 mmHg 63%
    23:00 +29°C° 0 mm 4 mps 757 mmHg 64%
    Show more